Find Starlink 31144

NORAD ID: 58682 Int'l Des: 2023-211 Owner: SPXS Country: US Constellation: starlink operational
LEOCIRCULAR

Live-Position

3D-Globus wird geladen...

Über Starlink 31144

Beschreibung wird geladen...

Nächste Überflüge

Passes for default location (London). Set your location on the main map for personalized predictions.

Höhenverlauf

Loading altitude history...

Zweizeiliger Elementsatz

1 58682U 23211R 26132.27245556 .00002325 00000-0 93973-4 0 9995
2 58682 43.0043 85.7718 0001417 257.7187 102.3506 15.27588296132197
Epoch: 12. Mai 2026 • Age: 20 hours

Aktueller Status

Höhe 492.8 km
Geschwindigkeit 7.62 km/s
Subsatellitenpunkt -36.37°S, 118.24°E
Startdatum 29. Dez. 2023
Alter 2.3 years
Typ internet

Technische Details

Klassifizierung Payload
Masse 730.00 kg
Trockenmasse 700.00 kg
Gesamtmasse 730.00 kg
Länge 0.30 m
Durchmesser 4.10 m
Spannweite 29.00 m
Form Box + pan
Hersteller SPXS
Bus-Typ Starlink V2M
Phasenstatus In Orbit
Besitzer/Staat SPXS/US

Most Searched